VK6YY Weather Reports


time (UTC)temp
F
wind
direction
speed
knots
gust
knots
rain 1hr
in
rain 24hr
in
rain mn
in
humidity
%
barometer
mb
20260505224523 54 23 2.6 7.0 0.00 0.00 0.00 78 1025.7
20260505223021 54 79 2.6 7.0 0.00 0.00 0.00 77 1025.6
20260505221517 55 136 2.6 6.1 0.00 0.00 0.00 76 1025.4
20260505220014 55 46 3.5 7.0 0.00 0.00 0.00 76 1025.3
20260505214508 55 102 3.5 9.6 0.00 0.00 0.00 76 1025.3
20260505213006 55 25 2.6 7.8 0.00 0.00 0.00 76 1025.2
20260505211503 56 206 3.5 7.8 0.00 0.00 0.00 75 1024.9
20260505210001 56 84 3.5 7.8 0.00 0.00 0.00 75 1024.9
20260505204601 56 109 3.5 9.6 0.00 0.00 0.00 74 1024.9
20260505203057 56 97 2.6 7.0 0.00 0.00 0.00 74 1024.8
20260505201556 56 127 3.5 8.7 0.00 0.00 0.00 73 1024.6
20260505200049 57 133 4.3 11.3 0.00 0.00 0.00 73 1024.6
20260505194542 57 77 2.6 7.0 0.00 0.00 0.00 72 1024.6
20260505193041 57 14 3.5 8.7 0.00 0.00 0.00 72 1024.7
20260505191542 57 82 1.7 6.1 0.00 0.00 0.00 72 1024.6
20260505190044 57 92 1.7 7.8 0.00 0.00 0.00 71 1024.6
20260505184511 57 122 1.7 7.0 0.00 0.00 0.00 71 1024.6
20260505183011 58 58 1.7 6.1 0.00 0.00 0.00 70 1024.8
20260505181506 58 120 2.6 9.6 0.00 0.00 0.00 70 1024.8
20260505180009 58 67 3.5 11.3 0.00 0.00 0.00 70 1024.7
20260505174507 59 98 2.6 8.7 0.00 0.00 0.00 70 1024.7
20260505173004 59 64 4.3 9.6 0.00 0.00 0.00 71 1024.6
20260505171502 58 110 4.3 11.3 0.00 0.00 0.00 72 1024.5
20260505170002 58 123 3.5 7.8 0.00 0.00 0.00 74 1024.5
20260505164622 57 90 2.6 7.0 0.00 0.00 0.00 76 1024.6
20260505163107 56 78 1.7 5.2 0.00 0.00 0.00 77 1024.5
20260505161614 57 109 0.0 1.7 0.00 0.00 0.00 78 1024.3
20260505153056 57 120 0.0 2.6 0.00 0.00 0.00 77 1024.3
20260505151554 58 117 0.0 3.5 0.00 0.00 0.00 77 1024.3
20260505130105 61 132 3.5 5.2 0.00 0.00 0.00 74 1024.3
20260505124551 61 138 2.6 5.2 0.00 0.00 0.00 74 1024.2
20260505124546 61 140 2.6 5.2 0.00 0.00 0.00 74 1024.2
20260505123045 61 126 3.5 6.1 0.00 0.00 0.00 74 1024.2
20260505121543 61 137 4.3 7.0 0.00 0.00 0.00 74 1024.0
20260505120011 62 138 4.3 7.0 0.00 0.00 0.00 76 1024.0
20260505114510 62 130 3.5 6.1 0.00 0.00 0.00 76 1024.1
20260505113007 63 120 3.5 6.1 0.00 0.00 0.00 76 1024.0
20260505111512 63 136 1.7 6.1 0.00 0.00 0.00 75 1024.0
20260505101503 65 157 5.2 11.3 0.00 0.00 0.00 76 1023.3
20260505100001 65 160 6.1 13.0 0.00 0.00 0.00 76 1023.3
20260505094602 66 175 5.2 10.4 0.00 0.00 0.00 75 1023.1
20260505093107 66 180 7.0 13.0 0.00 0.00 0.00 74 1023.1
20260505091556 66 192 7.0 12.2 0.00 0.00 0.00 74 1023.0
20260505090055 67 173 7.8 13.9 0.00 0.00 0.00 72 1023.0
20260505084555 67 208 6.1 17.4 0.00 0.00 0.00 72 1023.0
20260505083051 67 246 6.1 13.0 0.00 0.00 0.00 72 1022.9
20260505081553 67 188 7.0 13.9 0.00 0.00 0.00 71 1022.9
20260505080050 67 231 7.8 13.0 0.00 0.00 0.00 70 1022.9
20260505074548 68 209 7.0 13.9 0.00 0.00 0.00 70 1022.8
20260505073048 68 193 7.0 13.0 0.00 0.00 0.00 70 1022.8
20260505071551 68 179 7.8 15.6 0.00 0.00 0.00 68 1022.7
20260505070042 69 169 7.0 13.0 0.00 0.00 0.00 67 1022.8
20260505064542 68 157 7.0 13.0 0.00 0.00 0.00 67 1022.8
20260505063036 69 203 5.2 13.0 0.00 0.00 0.00 67 1022.7
20260505061536 68 257 5.2 9.6 0.00 0.00 0.00 65 1022.7
20260505060034 68 194 6.1 10.4 0.00 0.00 0.00 66 1022.8
20260505054548 68 165 3.5 9.6 0.00 0.00 0.00 67 1022.8
20260505053038 68 196 5.2 10.4 0.00 0.00 0.00 65 1022.9
20260505051536 68 246 3.5 9.6 0.00 0.00 0.00 66 1023.0
20260505041521 70 249 4.3 7.8 0.00 0.00 0.00 57 1023.8
20260505040032 71 134 0.9 5.2 0.00 0.00 0.00 50 1024.0
20260505034519 72 5 1.7 5.2 0.00 0.00 0.00 50 1024.2
20260505033011 71 5 0.9 5.2 0.00 0.00 0.00 51 1024.3
20260505031508 70 5 0.9 5.2 0.00 0.00 0.00 54 1024.4
20260505030012 70 9 1.7 7.0 0.00 0.00 0.00 54 1024.5
20260505024501 69 355 1.7 7.0 0.00 0.00 0.00 55 1024.6
20260505023028 68 27 2.6 6.1 0.00 0.00 0.00 55 1024.7
20260505021526 67 21 0.9 7.8 0.00 0.00 0.00 58 1024.8
20260505020017 65 59 0.9 5.2 0.00 0.00 0.00 61 1024.8
20260505014514 65 40 1.7 7.0 0.00 0.00 0.00 62 1024.9
20260505013011 63 28 0.9 5.2 0.00 0.00 0.00 65 1024.9
20260505011509 62 38 0.9 4.3 0.00 0.00 0.00 69 1024.9
20260505010104 61 95 0.9 5.2 0.00 0.00 0.00 70 1025.0
20260505004554 60 87 2.6 8.7 0.00 0.00 0.00 72 1024.6
20260505003049 58 149 2.6 7.0 0.00 0.00 0.00 75 1024.5
20260505001545 56 355 1.7 6.1 0.00 0.00 0.00 80 1024.3
20260505000040 55 134 1.7 7.0 0.00 0.00 0.00 81 1024.1
20260504234533 54 78 1.7 5.2 0.00 0.00 0.00 82 1024.0
20260504233031 53 37 1.7 6.1 0.00 0.00 0.00 82 1023.8
20260504231528 53 35 2.6 7.0 0.00 0.00 0.00 82 1023.6
20260504230027 53 71 1.7 7.0 0.00 0.00 0.00 82 1023.5